[Iaude] MPEC D120: 2024 DR1 [a=2.32,e=0.65,i=22.0,H=21.7]

mpec at cfa.harvard.edu mpec at cfa.harvard.edu
Fri Feb 23 09:27:22 EST 2024


M.P.E.C. 2024-D120                            Issued 2024 February 23, 14:25 UT

     The Minor Planet Electronic Circulars contain information on unusual
         minor planets, routine data on comets and natural satellites,
         and occasional editorial announcements.  They are published
    on behalf of Division F of the International Astronomical Union by the
          Minor Planet Center, Smithsonian Astrophysical Observatory,
                          Cambridge, MA 02138, U.S.A.
			  
             Prepared using the Tamkin Foundation Computer Network

                              MPC at CFA.HARVARD.EDU
            URL https://www.minorplanetcenter.net/    ISSN 1523-6714

                                    2024 DR1                                    


Observations:
     K24D01R*1C2024 02 16.15521606 05 40.258+47 17 51.32         20.92GVED120G96
     K24D01R 1C2024 02 16.16047806 05 43.577+47 17 13.88         21.21GVED120G96
     K24D01R 1C2024 02 16.16573306 05 46.849+47 16 36.23         20.22GVED120G96
     K24D01R 1C2024 02 16.17101706 05 50.201+47 15 57.96         20.41GVED120G96
     K24D01R KC2024 02 16.21965806 06 20.572+47 10 08.00         20.5 GVED120H01
     K24D01R KC2024 02 16.22887706 06 26.380+47 09 01.54         20.8 GVED120H01
     K24D01R KC2024 02 16.23309806 06 29.017+47 08 31.29         20.8 GVED120H01
     K24D01R KC2024 02 16.24034006 06 33.575+47 07 38.93         20.8 GVED120H01
     K24D01R KC2024 02 16.28260106 07 00.131+47 02 35.52         20.56GVED120I52
     K24D01R KC2024 02 16.28515606 07 01.715+47 02 17.02         21.26GVED120I52
     K24D01R KC2024 02 16.28772106 07 03.353+47 01 58.58         20.80GVED120I52
     K24D01R KC2024 02 16.29027506 07 04.962+47 01 39.83         21.32GVED120I52
     K24D01R KB2024 02 16.85455 06 12 55.23 +45 54 53.3          20.3 RZED120106
     K24D01R KB2024 02 16.86124 06 12 59.15 +45 54 06.1                ZED120106
     K24D01R KB2024 02 16.86793 06 13 03.06 +45 53 18.6          19.6 RZED120106
     K24D01R KB2024 02 16.87462 06 13 06.95 +45 52 31.3          19.7 RZED120106
     K24D01R KB2024 02 16.95929 06 13 57.10 +45 42 44.3          20.1 VqED120Y66
     K24D01R KB2024 02 16.95971 06 13 57.38 +45 42 41.3                qED120Y66
     K24D01R KB2024 02 16.96096 06 13 58.08 +45 42 32.1                qED120Y66
     K24D01R KB2024 02 16.96137 06 13 58.33 +45 42 29.2                qED120Y66
     K24D01R KB2024 02 16.96179 06 13 58.50 +45 42 26.4                qED120Y66
     K24D01R KC2024 02 17.09310406 15 17.64 +45 26 59.6          20.3 GXED120858
     K24D01R KC2024 02 17.10398506 15 23.81 +45 25 43.8          20.6 GXED120858
     K24D01R KC2024 02 17.11467406 15 29.84 +45 24 29.3                XED120858
     K24D01R KC2024 02 17.77213 06 21 39.34 +44 08 05.1          20.5 GVED120204
     K24D01R KC2024 02 17.79544 06 21 51.64 +44 05 25.1                VED120204
     K24D01R KC2024 02 23.27199906 59 57.660+34 35 30.70         20.92GVED120I52
     K24D01R KC2024 02 23.27634706 59 59.020+34 35 06.20         20.00GVED120I52
     K24D01R KC2024 02 23.28070607 00 00.440+34 34 42.10         21.62GVED120I52
     K24D01R KC2024 02 23.28951507 00 03.170+34 33 52.70         21.53GVED120I52

Observer details:
106 Crni Vrh.  Observer H. Mikuz.  0.60-m f/3.3 reflector + CMO.
204 Schiaparelli Observatory.  Observers L. Buzzi, G. Galli.  0.84-m f/3.5
    reflector + CMO.
858 Tebbutt Observatory, Edgewood.  Observer F. B. Zoltowski.  0.51-m f/8.1
    Schmidt-Cassegrain + CCD.
G96 Mt. Lemmon Survey.  Observers V. F. Carvajal, J. K. Hogan.  Measurers T.
    Beuden, V. F. Carvajal, D. Fay, J. B. Fazekas, D. C. Fuls, A. R. Gibbs, A.
    D. Grauer, H. Groeller, J. K. Hogan, R. A. Kowalski, S. M. Larson, G. J.
    Leonard, D. Rankin, R. L. Seaman, F. C. Shelly, K. W. Wierzchos.  1.5-m
    reflector + 10K CCD.
H01 Magdalena Ridge Observatory, Socorro.  Observers W. H. Ryan, E. V. Ryan.
    Measurer W. H. Ryan.  2.4-m f/8.9 Ritchey-Chretien + CCD.
I52 Steward Observatory, Mt. Lemmon Station.  Observer J. B. Fazekas.
    Measurers E. C. Beshore, D. Fay, J. B. Fazekas, D. C. Fuls, A. R. Gibbs,
    A. D. Grauer, H. Groeller, J. K. Hogan, R. A. Kowalski, S. M. Larson, G.
    J. Leonard, D. Rankin, R. L. Seaman, F. C. Shelly, K. W. Wierzchos.  1.0-m
    prime focus + CCD.
Y66 Two-Meter Twin Telescope, TTT2, Teide.  Observer M. Serra.  Measurer M.
    Hierro.  0.80-m f/4.38 reflector + CMO.

Orbital elements:
2024 DR1                                                 Earth MOID = 0.1661 AU
Epoch 2024 Mar. 31.0 TT = JDT 2460400.5                 Veres                   
M  27.48080              (2000.0)            P               Q                  
n   0.27802901     Peri.   92.12059     +0.43295935     -0.88153141             
a   2.3249269      Node   329.87208     +0.60302410     +0.43850049             
e   0.6476939      Incl.   22.03088     +0.67000607     +0.17498484             
P   3.54           H   21.74          G   0.15           U   9                  
Residuals in seconds of arc
240216 G96  0.1+  0.1+    240216 I52  0.1+  0.0     240216 Y66  0.4-  0.1-
240216 G96  0.1+  0.2+    240216 I52  0.2+  0.2-    240217 858  0.1-  0.1-
240216 G96  0.2-  0.1+    240216 106  0.2+  0.3-    240217 858  0.2-  0.1+
240216 G96  0.1+  0.3-    240216 106  0.2+  0.1-    240217 858  0.4-  0.3+
240216 H01  0.1-  0.1+    240216 106  0.2+  0.2-    240217 204  0.3+  0.1+
240216 H01  0.1+  0.0     240216 106  0.0   0.0     240217 204  0.0   0.2+
240216 H01  0.0   0.1+    240216 Y66  0.0   0.0     240223 I52  0.2-  0.2+
240216 H01  0.2+  0.0     240216 Y66  0.4+  0.0     240223 I52  0.2-  0.1-
240216 I52  0.1-  0.0     240216 Y66  0.2+  0.3-    240223 I52  0.5+  0.1+
240216 I52  0.3-  0.1-    240216 Y66  0.3+  0.3-    240223 I52  0.1+  0.2-

Ephemeris:
2024 DR1                 a,e,i = 2.32, 0.65, 22                  q = 0.8191
Date    TT    R. A. (2000) Decl.     Delta      r    Elong.  Phase     V
2024 01 24    22 35 07.8 +48 40 10   0.2839  0.9479    74.3    88.9    22.0
...
2024 02 08    03 39 17.1 +61 36 29   0.2278  1.0694   105.3    62.8    20.9
...
2024 02 16    06 03 58.2 +47 36 19   0.2572  1.1414   120.9    47.9    20.9
...
2024 02 22    06 52 44.9 +36 36 25   0.3043  1.1973   127.1    41.2    21.2
2024 02 23    06 58 29.6 +35 00 50   0.3137  1.2067   127.7    40.5    21.2
2024 02 24    07 03 46.9 +33 29 43   0.3235  1.2161   128.1    39.8    21.3
...
2024 03 01    07 28 37.0 +25 50 52   0.3893  1.2732   129.2    37.1    21.7
...
2024 03 09    07 51 11.7 +18 44 39   0.4909  1.3498   127.6    35.6    22.3
...
2024 03 24    08 20 55.7 +10 53 21   0.7105  1.4931   121.1    34.9    23.3

M. P. C. Staff               (C) Copyright 2024 MPC           M.P.E.C. 2024-D120





More information about the Iaude mailing list